Temp
10 10 10 10 10 10 10 10 10 10 10 10 10 10 10 10 10 10 10 10 10 10 10 10 10 10 10 10 10 10 10 10 10 10 10 10 10 10 10 10 10 10 10 10 10 10 10 10 10 10 10 10 10 10 10 10 10 10 9 9 10 10 10 10 10 10 10 10 11 11 10 10 10 10
10 10 10 10 10 10 10 10 10 10 10 10 9 9 9 9 9 9 10 10 10 10 10 10 10 10 10 10 10 10 10 10 10 10 10 10 10 10 10 10 10 10 10 10 10 10 10 10 10 10 10 10 10 10 10 10 10 10 10 9 9 9 10 10 10 10 10 10 10 11 11 10 10 9
10 10 10 10 10 10 10 10 10 10 10 10 10 9 10 9 9 9 9 10 10 10 10 10 10 10 10 10 10 10 10 10 10 10 10 10 10 10 10 10 10 10 10 10 10 10 10 11 11 10 10 10 10 10 10 10 10 10 10 10 10 9 9 9 10 10 10 10 10 10 11 11 10 10
10 10 10 10 10 10 10 10 10 10 10 10 10 10 10 9 9 9 10 10 10 10 10 10 10 10 10 10 10 10 10 10 10 10 10 10 9 10 10 10 10 10 10 10 10 10 10 10 11 11 10 10 10 10 10 10 10 10 10 10 10 10 9 9 9 10 10 10 10 10 10 10 10 10
10 10 10 10 10 10 10 10 10 10 10 10 10 10 10 10 9 10 10 10 10 10 10 10 10 10 10 10 10 10 10 10 10 10 10 10 9 9 10 10 10 10 10 10 10 10 10 10 11 11 11 10 10 10 10 10 10 10 10 10 10 10 10 9 9 9 10 10 10 10 10 10 10 10
10 10 10 10 10 10 10 10 10 10 10 10 10 10 10 10 10 10 10 10 10 10 10 10 10 10 10 10 10 10 10 10 10 10 10 10 10 10 10 10 10 10 10 10 10 10 10 10 10 11 11 11 10 10 10 10 10 10 10 10 10 10 10 10 9 9 9 10 10 10 10 10 10 10
10 10 10 10 9 10 10 10 10 10 10 10 10 10 10 10 10 10 10 10 10 10 10 10 10 10 10 10 10 10 10 10 10 10 10 10 10 10 10 10 10 10 10 10 10 10 10 10 10 10 10 11 11 10 10 10 10 10 10 10 10 10 10 10 10 10 9 9 10 10 10 10 10 10
10 9 10 9 9 9 10 10 10 10 10 10 10 10 9 9 9 10 10 10 10 10 10 10 10 10 10 10 10 10 10 10 10 9 9 9 10 10 10 10 10 10 10 10 10 10 10 10 10 10 10 10 10 10 10 10 10 10 10 11 11 10 10 10 10 10 10 10 9 9 9 10 10 10
9 9 9 10 10 10 10 10 10 10 10 9 10 10 10 10 10 10 10 10 10 10 10 10 10 10 10 10 10 10 9 9 9 9 9 9 9 10 10 10 10 10 10 10 10 10 10 10 10 9 9 10 10 10 10 10 10 10 10 11 11 11 10 10 11 11 11 10 10 10 10 9 9 9
9 9 10 10 10 10 10 10 10 10 10 9 10 10 10 10 10 10 9 10 10 10 10 10 10 10 10 10 10 9 9 9 9 9 9 9 9 9 9 10 10 10 10 10 10 10 10 10 9 9 9 9 10 10 10 10 10 10 10 11 11 11 11 11 11 11 11 11 11 10 10 10 10 9
9 9 10 10 10 10 10 10 10 10 10 10 10 10 10 10 10 9 9 9 9 10 10 10 10 10 10 10 10 9 10 9 9 9 9 9 9 9 9 9 10 10 10 10 10 10 10 10 10 9 9 9 9 10 10 10 10 10 10 10 11 11 11 11 11 11 11 11 11 11 10 10 10 10
10 10 10 10 10 10 9 9 9 9 9 9 9 9 9 10 10 10 9 9 10 10 10 10 10 10 10 10 9 9 10 10 9 9 9 10 9 9 9 9 9 10 10 10 10 10 10 10 10 10 9 9 9 9 10 10 10 10 10 10 11 11 11 11 11 11 11 11 11 11 11 10 10 10
10 10 9 10 9 9 9 9 9 9 9 9 9 9 9 9 10 10 10 10 10 10 10 10 10 10 10 10 9 9 9 9 9 9 10 10 10 9 9 9 9 9 9 9 9 9 9 10 10 10 10 9 9 9 10 10 10 9 10 10 10 11 11 11 11 11 11 11 11 11 11 11 10 10
10 10 10 10 9 9 9 9 9 9 9 9 9 9 9 9 9 10 10 10 10 10 10 10 10 10 10 10 9 9 9 9 9 9 10 10 9 10 10 9 9 9 9 9 9 9 9 9 9 9 9 9 9 9 9 10 9 9 9 9 10 10 10 11 11 11 11 11 11 11 11 11 11 11
10 10 10 10 9 9 9 10 9 9 9 9 9 9 9 9 9 10 10 10 9 9 9 9 9 9 10 9 9 9 9 9 9 10 10 10 10 10 10 9 9 9 9 9 9 9 9 9 9 9 9 9 9 9 9 9 9 9 9 9 9 10 10 10 10 10 11 11 10 10 10 10 10 10
10 10 10 9 9 9 10 9 9 9 9 9 9 9 9 9 9 10 10 10 9 9 9 9 9 9 9 9 9 9 9 9 10 10 10 10 10 10 9 10 9 9 9 9 9 9 9 9 9 9 9 9 9 9 9 9 9 9 9 9 9 9 10 10 10 10 10 10 10 10 10 10 10 10
9 9 9 9 9 9 9 9 9 9 9 9 9 9 9 9 9 9 9 9 9 10 10 10 10 9 9 9 9 9 9 9 10 10 10 10 10 10 10 10 10 9 9 9 9 9 9 9 9 9 9 9 9 9 9 9 9 9 9 9 9 9 9 10 10 10 10 10 10 10 10 10 10 10
9 9 9 9 9 9 9 9 9 9 9 9 9 9 9 9 9 9 9 9 9 10 10 10 10 10 9 9 9 9 9 9 9 10 10 10 10 10 10 10 10 10 9 9 9 9 9 9 8 9 9 9 9 9 9 9 9 9 9 9 9 9 9 9 9 10 10 10 10 10 10 10 10 10
9 9 9 9 9 9 9 9 9 9 9 9 9 9 9 9 9 9 9 9 9 10 10 10 10 10 10 9 9 9 9 9 9 9 10 10 10 10 10 10 10 10 9 9 9 9 9 9 9 9 9 9 8 8 8 9 9 9 8 8 8 9 9 9 9 9 10 10 10 10 10 10 10 10
8 9 9 9 9 9 9 9 9 9 9 9 9 9 9 9 9 9 9 9 9 10 10 10 10 10 10 10 10 9 9 9 9 9 10 10 10 10 10 10 10 10 9 9 9 9 9 9 9 9 8 8 8 8 8 9 9 9 8 8 8 8 8 9 9 9 9 9 9 10 10 10 10 10
8 8 8 8 8 9 9 9 9 9 9 9 9 9 9 9 9 9 9 9 9 9 10 10 10 10 10 10 10 10 10 10 10 10 10 10 10 10 10 10 10 10 9 9 9 9 8 8 8 8 8 8 8 8 8 8 8 8 8 8 7 8 8 8 8 8 8 8 9 9 9 9 9 9
8 8 8 8 8 8 9 9 9 9 9 9 9 9 9 9 9 9 9 9 9 9 9 9 10 10 10 10 10 10 10 10 10 10 10 10 10 10 10 10 10 9 9 9 9 9 8 8 8 8 8 8 8 8 8 8 8 8 8 7 7 8 8 8 8 8 8 8 8 8 8 8 9 9
8 8 8 8 8 8 8 9 9 9 9 9 9 9 9 9 9 9 9 9 9 9 9 9 9 9 9 9 9 9 10 10 9 9 9 9 10 10 10 10 10 9 9 8 8 8 8 8 8 8 8 8 8 8 8 8 7 7 7 7 7 7 7 7 7 7 7 7 7 7 7 7 8 8
8 8 8 8 8 8 8 8 9 9 9 8 8 8 8 8 8 8 8 8 8 9 9 9 9 9 9 9 9 9 9 9 9 9 9 9 9 10 9 9 9 8 8 8 8 8 8 8 8 8 7 7 7 7 7 7 7 7 7 7 7 7 7 7 7 7 7 6 7 7 7 7 7 7
8 8 7 8 8 8 8 8 8 8 8 8 8 8 8 8 8 8 8 8 8 9 9 9 9 9 9 9 9 9 9 9 9 9 9 9 9 9 9 9 8 8 8 8 8 8 7 8 8 7 7 7 7 7 7 7 7 7 7 7 7 7 7 7 7 7 6 6 6 6 6 6 6 6
7 7 7 7 8 8 8 8 8 8 8 8 8 8 8 8 8 8 8 8 8 8 8 9 9 9 9 9 9 9 9 9 9 9 9 9 8 8 8 8 8 8 8 8 8 7 7 7 7 7 7 7 7 7 7 7 7 7 7 7 6 6 6 6 6 6 6 6 6 6 6 6 5 6
7 7 7 7 7 7 7 8 8 8 8 8 8 8 8 8 8 8 8 8 8 8 8 8 8 8 9 9 9 8 8 8 8 8 8 8 8 8 7 7 7 7 7 7 7 7 7 7 7 7 7 7 7 7 7 6 6 6 6 6 6 6 6 6 6 6 5 5 5 5 5 5 5 5
7 7 7 7 7 7 7 7 8 8 8 8 8 8 8 8 8 8 8 8 8 8 8 8 8 8 8 8 8 8 8 8 8 8 8 8 7 7 7 7 7 7 7 7 7 7 7 6 6 6 6 6 6 6 6 6 6 6 6 5 5 5 5 5 5 5 5 5 5 4 4 4 4 4
7 7 7 7 7 7 7 7 8 8 8 8 8 8 8 8 8 8 8 8 8 8 8 8 8 8 8 8 8 8 8 8 8 8 7 7 7 7 7 7 7 7 7 6 6 6 6 6 6 6 6 6 6 6 6 6 6 5 5 5 5 5 5 5 5 5 5 4 4 3 3 3 3 3
7 7 7 7 7 7 7 8 8 8 8 8 8 8 7 7 7 8 8 8 8 8 8 8 7 7 7 7 7 7 7 7 7 7 7 7 6 6 6 6 6 6 5 5 5 5 5 5 5 5 5 5 5 5 5 5 5 5 5 5 5 5 5 4 4 4 4 4 4 3 3 3 3 3
7 7 7 7 7 7 7 8 8 8 8 8 8 7 7 7 7 7 7 8 7 7 7 7 7 7 7 6 6 6 6 6 6 6 6 6 6 6 6 6 5 5 5 4 4 4 4 4 5 5 5 5 5 5 5 4 4 4 4 4 4 4 4 4 4 3 3 3 3 3 3 3 3 3
7 7 7 7 7 7 7 8 8 8 8 8 7 7 7 7 7 7 7 6 6 6 6 6 6 6 6 5 5 5 5 5 5 5 5 5 5 5 5 5 5 5 4 4 3 3 4 4 4 4 4 4 4 4 4 4 4 4 4 4 4 3 3 3 3 3 3 3 2 3 3 2 2 2
7 7 7 7 7 7 7 7 7 7 7 7 7 7 7 6 6 5 5 5 5 5 5 5 4 5 5 5 5 5 5 5 5 4 4 4 4 4 4 4 4 4 4 4 4 3 3 3 3 3 3 4 4 4 4 3 3 3 3 3 3 3 3 2 2 2 2 2 2 2 2 2 2 2
7 7 7 7 7 7 7 7 7 7 6 6 6 6 6 5 5 4 4 4 4 4 4 4 4 4 4 4 4 4 4 4 4 4 4 4 4 4 4 4 4 4 4 4 4 4 3 3 3 3 3 3 3 3 3 3 3 3 3 3 3 2 2 1 1 1 1 2 2 2 2 2 2 2
7 7 7 7 7 7 6 6 6 6 6 6 6 5 5 5 5 4 4 4 4 3 3 3 3 3 3 3 3 3 3 3 3 3 3 3 3 3 3 3 3 3 3 3 3 3 3 3 3 3 3 3 3 2 2 2 2 2 2 2 2 2 2 1 1 1 1 1 1 1 2 2 2 2
7 6 6 6 6 6 6 6 6 5 5 5 5 4 4 4 4 4 4 4 3 3 3 3 3 3 2 2 2 2 2 2 2 2 2 2 2 2 2 2 2 2 2 2 2 2 2 2 2 3 3 3 2 2 2 2 2 2 2 2 2 2 1 1 1 1 1 0 0 0 1 1 1 2
6 6 6 6 6 5 5 5 5 4 4 4 4 3 3 3 3 3 3 3 3 3 3 2 2 2 2 2 2 2 2 2 2 2 2 2 2 2 2 1 1 1 1 1 1 1 1 1 1 1 2 2 2 2 2 1 1 1 2 2 2 2 2 1 1 1 0 0 -0 -0 -0 0 1 1
6 6 6 5 5 5 5 4 4 3 3 3 3 3 2 2 2 2 2 2 2 2 2 1 1 1 1 1 1 1 1 2 2 2 2 2 2 1 1 1 1 1 1 0 0 0 0 0 0 0 1 1 1 1 1 1 1 1 1 1 1 1 1 1 1 1 0 0 -0 -0 0 0 0 1
5 5 5 5 5 4 4 4 4 3 3 3 3 3 2 2 2 2 2 2 2 1 1 1 1 1 1 1 1 1 1 1 1 1 1 1 1 1 1 1 1 1 0 0 -0 -0 -1 -1 -1 -1 -1 -0 -0 -0 0 0 0 -0 0 0 0 0 0 0 0 0 0 0 0 0 0 0 0 0
5 5 5 4 4 4 4 3 3 3 3 2 2 2 2 1 1 1 1 1 1 1 1 1 1 1 1 1 1 1 1 1 1 1 1 1 1 1 1 0 0 0 0 -0 -0 -1 -1 -1 -1 -1 -1 -1 -1 -1 -1 -1 -1 -1 -1 -1 -1 -1 -1 -0 -0 -0 -0 0 0 0 -0 -0 -0 -0
4 4 4 3 3 3 3 3 2 2 2 1 1 1 1 0 0 0 0 0 0 -0 -0 -0 -0 -0 -0 -0 -0 -0 -0 0 0 0 0 0 0 0 -0 -0 -0 -0 -0 -1 -1 -1 -1 -2 -2 -2 -2 -2 -2 -2 -2 -2 -2 -2 -2 -1 -1 -1 -1 -1 -1 -1 -1 -1 -1 -1 -1 -1 -1 -1
4 4 3 3 3 3 2 2 2 1 1 1 1 0 0 -0 -0 -0 -0 -1 -1 -1 -1 -1 -1 -1 -1 -1 -1 -1 -1 -1 -1 -1 -1 -1 -1 -1 -1 -1 -1 -1 -1 -1 -1 -2 -2 -2 -3 -3 -3 -3 -2 -2 -3 -3 -3 -2 -2 -2 -2 -2 -2 -2 -2 -2 -2 -2 -1 -1 -1 -1 -1 -1
4 3 3 3 3 2 2 2 1 1 1 1 1 0 0 -0 -0 -1 -1 -1 -1 -1 -2 -2 -2 -2 -2 -1 -1 -1 -1 -1 -1 -1 -1 -1 -1 -2 -2 -2 -2 -2 -2 -2 -2 -3 -3 -4 -4 -3 -3 -3 -3 -3 -3 -3 -3 -3 -3 -3 -3 -3 -3 -3 -3 -3 -3 -3 -2 -2 -2 -2 -2 -2
3 3 3 2 2 2 1 1 1 1 1 0 0 -0 -1 -1 -1 -2 -2 -2 -2 -2 -2 -2 -2 -2 -2 -2 -2 -2 -2 -2 -2 -2 -2 -2 -2 -2 -3 -3 -3 -3 -3 -3 -4 -4 -4 -4 -4 -4 -4 -4 -4 -4 -4 -4 -4 -4 -4 -4 -4 -4 -4 -4 -4 -4 -4 -4 -4 -4 -4 -4 -4 -4
3 2 2 2 1 1 1 0 0 -0 -0 -1 -1 -1 -1 -2 -2 -2 -2 -2 -2 -2 -2 -2 -2 -2 -2 -2 -2 -2 -2 -2 -2 -3 -3 -3 -3 -3 -3 -3 -3 -3 -3 -4 -4 -4 -5 -5 -5 -5 -5 -5 -5 -5 -5 -5 -5 -5 -5 -5 -5 -5 -5 -5 -5 -5 -6 -5 -5 -5 -5 -5 -5 -5
Height
3226 3226 3226 3226 3226 3226 3225 3225 3225 3225 3225 3225 3224 3223 3222 3222 3221 3220 3219 3219 3218 3216 3216 3215 3214 3213 3212 3211 3210 3209 3208 3207 3206 3205 3204 3204 3203 3201 3200 3199 3198 3197 3195 3194 3193 3191 3190 3189 3187 3186 3184 3182 3181 3179 3178 3177 3175 3174 3172 3171 3169 3168 3166 3165 3163 3162 3161 3159 3158 3156 3155 3154 3153 3153
3226 3225 3225 3225 3225 3225 3224 3224 3224 3224 3224 3223 3222 3222 3221 3221 3220 3219 3219 3218 3217 3216 3215 3214 3213 3212 3211 3210 3209 3208 3207 3206 3205 3204 3204 3203 3202 3201 3199 3198 3197 3196 3195 3194 3192 3191 3190 3189 3187 3186 3184 3182 3181 3180 3178 3177 3176 3174 3173 3171 3170 3169 3167 3166 3164 3163 3162 3161 3160 3158 3157 3156 3155 3155
3225 3225 3224 3224 3224 3223 3223 3222 3222 3222 3222 3221 3221 3221 3220 3220 3219 3218 3218 3217 3216 3215 3215 3214 3213 3212 3211 3210 3209 3208 3206 3205 3204 3203 3203 3202 3201 3200 3199 3198 3196 3195 3194 3193 3192 3191 3189 3188 3187 3186 3184 3182 3181 3180 3179 3177 3176 3175 3174 3172 3171 3170 3169 3167 3166 3164 3163 3162 3161 3160 3159 3158 3157 3156
3224 3223 3223 3223 3222 3222 3221 3221 3221 3221 3220 3220 3220 3220 3219 3219 3218 3218 3217 3217 3216 3215 3214 3213 3213 3212 3211 3210 3208 3207 3206 3204 3203 3202 3201 3201 3200 3199 3198 3197 3196 3195 3194 3193 3191 3190 3189 3188 3187 3185 3184 3183 3181 3180 3179 3177 3176 3175 3174 3173 3172 3171 3170 3169 3167 3166 3164 3163 3162 3161 3160 3159 3159 3158
3223 3222 3222 3222 3222 3221 3220 3220 3220 3220 3219 3219 3219 3219 3219 3218 3218 3217 3216 3216 3215 3214 3214 3213 3212 3211 3210 3209 3208 3207 3205 3204 3202 3201 3200 3200 3199 3198 3197 3196 3195 3194 3193 3192 3191 3190 3188 3187 3186 3185 3184 3182 3181 3179 3178 3177 3176 3175 3174 3173 3172 3171 3170 3169 3168 3167 3166 3164 3163 3162 3162 3161 3160 3159
3222 3221 3221 3221 3221 3220 3219 3219 3219 3219 3219 3218 3218 3218 3218 3217 3217 3216 3215 3215 3214 3214 3213 3212 3211 3210 3209 3208 3207 3206 3204 3203 3201 3200 3199 3199 3198 3196 3195 3195 3194 3193 3191 3190 3189 3188 3187 3186 3185 3184 3183 3182 3180 3179 3178 3177 3176 3175 3174 3173 3173 3172 3171 3170 3169 3168 3167 3166 3165 3164 3163 3162 3161 3161
3221 3221 3220 3220 3220 3219 3219 3219 3218 3218 3218 3218 3218 3217 3217 3216 3216 3215 3214 3213 3213 3212 3212 3210 3209 3208 3207 3206 3205 3204 3203 3201 3200 3199 3198 3197 3196 3195 3194 3193 3192 3191 3189 3188 3188 3187 3186 3185 3184 3183 3182 3181 3180 3178 3177 3176 3175 3174 3174 3173 3172 3171 3171 3170 3169 3168 3167 3167 3166 3165 3164 3163 3163 3162
3220 3220 3220 3219 3219 3219 3218 3218 3218 3218 3218 3217 3217 3216 3216 3215 3214 3213 3213 3212 3211 3210 3210 3209 3208 3206 3206 3204 3203 3202 3201 3200 3198 3197 3196 3195 3194 3193 3192 3191 3190 3189 3188 3186 3186 3185 3184 3184 3183 3182 3181 3180 3179 3178 3177 3176 3175 3174 3173 3172 3172 3171 3170 3169 3169 3168 3168 3167 3166 3165 3165 3164 3163 3163
3219 3219 3218 3218 3218 3217 3217 3217 3216 3216 3216 3216 3215 3215 3214 3213 3213 3212 3211 3210 3209 3209 3208 3208 3206 3205 3204 3203 3202 3201 3200 3198 3197 3196 3194 3193 3192 3191 3190 3189 3188 3187 3186 3185 3184 3183 3183 3182 3182 3181 3179 3178 3178 3177 3176 3175 3175 3174 3173 3172 3171 3170 3169 3169 3168 3168 3167 3167 3166 3165 3165 3164 3163 3163
3217 3217 3217 3217 3216 3216 3216 3215 3215 3215 3214 3214 3213 3213 3212 3212 3211 3210 3209 3208 3207 3207 3206 3206 3205 3203 3202 3201 3200 3199 3198 3197 3196 3194 3193 3192 3190 3189 3189 3187 3186 3186 3185 3183 3182 3182 3181 3180 3180 3180 3178 3177 3176 3176 3175 3175 3174 3173 3172 3171 3170 3170 3169 3168 3167 3167 3167 3166 3165 3165 3164 3164 3163 3163
3216 3216 3216 3216 3216 3215 3215 3214 3214 3214 3213 3212 3212 3211 3210 3210 3209 3208 3207 3206 3206 3205 3204 3203 3203 3202 3201 3199 3198 3197 3196 3195 3194 3193 3192 3191 3189 3188 3187 3185 3184 3184 3183 3182 3181 3180 3179 3179 3178 3178 3177 3176 3175 3174 3174 3173 3172 3172 3171 3170 3170 3169 3168 3168 3167 3166 3166 3165 3165 3164 3164 3163 3163 3162
3215 3215 3215 3215 3215 3215 3214 3213 3213 3212 3212 3211 3210 3209 3209 3208 3207 3206 3205 3204 3203 3202 3202 3201 3200 3199 3199 3198 3196 3195 3194 3193 3192 3191 3190 3189 3188 3186 3185 3183 3181 3181 3180 3180 3179 3178 3178 3177 3176 3175 3175 3174 3173 3172 3171 3171 3171 3170 3169 3169 3168 3168 3167 3167 3166 3165 3165 3165 3164 3164 3163 3162 3162 3162
3214 3214 3214 3214 3214 3213 3213 3212 3212 3211 3210 3209 3209 3208 3207 3206 3204 3203 3202 3201 3200 3199 3199 3198 3198 3197 3196 3195 3194 3193 3192 3191 3190 3189 3188 3187 3186 3184 3183 3181 3179 3178 3177 3176 3176 3176 3175 3174 3174 3173 3172 3172 3171 3170 3169 3169 3169 3168 3168 3167 3167 3166 3166 3165 3165 3164 3164 3163 3163 3163 3162 3162 3161 3161
3213 3212 3212 3212 3212 3211 3211 3211 3210 3209 3208 3208 3207 3206 3205 3203 3202 3201 3200 3199 3198 3197 3196 3195 3194 3194 3193 3193 3191 3190 3189 3188 3187 3186 3185 3184 3183 3181 3180 3179 3178 3175 3174 3173 3172 3172 3172 3171 3171 3171 3170 3169 3168 3168 3167 3166 3166 3166 3166 3166 3165 3164 3164 3164 3163 3163 3162 3162 3161 3161 3161 3160 3160 3159
3211 3211 3210 3210 3210 3209 3209 3208 3208 3207 3206 3205 3204 3203 3202 3201 3200 3198 3198 3197 3196 3194 3193 3192 3191 3190 3189 3189 3188 3186 3185 3184 3183 3182 3181 3181 3180 3178 3177 3176 3175 3173 3171 3170 3169 3169 3168 3168 3168 3167 3167 3167 3166 3166 3165 3164 3164 3163 3163 3163 3163 3162 3162 3162 3161 3161 3161 3160 3160 3159 3159 3158 3158 3158
3208 3208 3208 3207 3207 3206 3206 3206 3205 3204 3203 3203 3202 3201 3200 3198 3197 3196 3195 3194 3193 3192 3190 3189 3188 3186 3185 3184 3184 3182 3181 3180 3180 3179 3178 3177 3176 3175 3174 3173 3172 3170 3168 3167 3166 3165 3165 3164 3165 3164 3164 3164 3163 3163 3163 3162 3161 3161 3160 3160 3160 3160 3160 3160 3159 3159 3159 3158 3158 3157 3156 3156 3156 3155
3206 3206 3205 3205 3204 3204 3203 3203 3203 3202 3201 3200 3199 3198 3197 3196 3194 3193 3192 3190 3189 3188 3187 3186 3185 3183 3182 3181 3180 3179 3177 3176 3175 3175 3174 3173 3172 3171 3170 3170 3169 3167 3165 3164 3163 3163 3162 3161 3161 3161 3161 3161 3160 3160 3159 3159 3159 3158 3158 3157 3157 3157 3157 3157 3157 3157 3156 3156 3156 3155 3155 3154 3153 3153
3203 3203 3202 3202 3201 3201 3201 3200 3199 3199 3198 3197 3196 3195 3194 3193 3192 3191 3189 3187 3186 3185 3184 3183 3182 3181 3179 3178 3177 3176 3174 3172 3171 3171 3170 3170 3169 3168 3167 3166 3166 3164 3162 3161 3161 3160 3159 3158 3158 3158 3158 3158 3157 3156 3156 3156 3155 3155 3155 3154 3154 3154 3154 3154 3154 3154 3154 3154 3153 3153 3152 3152 3151 3151
3200 3199 3199 3199 3198 3198 3197 3197 3196 3196 3195 3195 3194 3192 3191 3190 3189 3188 3186 3185 3183 3182 3181 3180 3179 3178 3177 3175 3174 3173 3171 3169 3168 3167 3167 3166 3166 3165 3164 3163 3163 3161 3159 3158 3157 3157 3156 3156 3154 3154 3154 3154 3154 3153 3153 3152 3152 3151 3151 3151 3151 3151 3151 3151 3151 3151 3151 3151 3150 3150 3150 3149 3149 3149
3196 3196 3196 3196 3195 3195 3194 3194 3194 3193 3193 3192 3191 3190 3188 3187 3186 3185 3184 3183 3181 3180 3179 3178 3177 3176 3175 3173 3172 3170 3169 3168 3166 3165 3164 3163 3162 3161 3161 3161 3160 3158 3156 3155 3154 3153 3153 3152 3151 3150 3151 3151 3150 3150 3150 3149 3148 3148 3148 3149 3149 3149 3148 3148 3148 3148 3148 3147 3147 3147 3146 3146 3146 3146
3194 3193 3193 3193 3192 3192 3192 3192 3191 3191 3190 3189 3188 3187 3186 3184 3183 3182 3181 3180 3179 3178 3177 3175 3174 3173 3172 3171 3169 3168 3167 3165 3164 3163 3162 3161 3160 3158 3157 3157 3156 3154 3153 3152 3151 3150 3150 3149 3148 3148 3148 3147 3147 3147 3147 3147 3146 3145 3145 3146 3146 3146 3145 3145 3145 3144 3144 3144 3143 3143 3143 3142 3142 3142
3191 3190 3190 3190 3190 3190 3189 3189 3188 3188 3187 3186 3185 3184 3183 3182 3180 3179 3178 3177 3176 3175 3174 3173 3172 3171 3169 3168 3167 3166 3164 3163 3162 3161 3159 3158 3157 3156 3154 3153 3152 3151 3150 3148 3148 3147 3147 3146 3145 3145 3145 3145 3145 3145 3145 3145 3144 3144 3143 3143 3143 3143 3142 3142 3141 3141 3141 3140 3140 3139 3139 3138 3139 3139
3187 3187 3188 3187 3187 3187 3187 3186 3186 3185 3184 3183 3182 3181 3180 3179 3178 3177 3176 3175 3175 3174 3173 3171 3170 3169 3167 3166 3164 3163 3162 3161 3160 3158 3157 3156 3154 3153 3152 3150 3149 3148 3147 3146 3145 3144 3144 3143 3143 3143 3143 3142 3142 3142 3142 3142 3142 3142 3141 3140 3140 3140 3139 3139 3139 3138 3138 3137 3137 3136 3135 3135 3135 3135
3184 3185 3185 3185 3184 3184 3184 3184 3183 3182 3181 3180 3179 3178 3177 3177 3176 3175 3174 3174 3173 3172 3171 3170 3169 3168 3166 3164 3163 3162 3160 3159 3158 3156 3155 3154 3152 3151 3149 3148 3147 3146 3145 3144 3143 3142 3142 3141 3141 3141 3141 3141 3140 3140 3140 3140 3140 3139 3138 3138 3137 3137 3136 3136 3135 3135 3135 3134 3133 3133 3132 3131 3131 3131
3182 3183 3183 3182 3182 3182 3181 3181 3180 3180 3179 3178 3177 3177 3176 3174 3173 3173 3173 3172 3171 3170 3169 3168 3167 3165 3164 3163 3161 3160 3159 3157 3156 3154 3153 3152 3150 3149 3147 3146 3145 3145 3143 3142 3141 3141 3140 3139 3139 3139 3139 3139 3138 3138 3137 3137 3136 3136 3135 3135 3134 3134 3133 3132 3132 3132 3131 3130 3130 3129 3128 3128 3127 3127
3179 3180 3179 3179 3179 3179 3178 3178 3178 3177 3177 3176 3176 3175 3174 3173 3172 3172 3171 3170 3169 3167 3166 3165 3164 3163 3162 3160 3159 3158 3156 3155 3154 3152 3151 3150 3148 3147 3146 3145 3144 3143 3142 3141 3140 3139 3138 3137 3137 3137 3136 3136 3135 3135 3134 3134 3133 3132 3132 3131 3130 3130 3129 3129 3128 3127 3127 3126 3126 3125 3124 3124 3123 3123
3177 3177 3176 3176 3176 3176 3176 3176 3175 3175 3175 3175 3175 3174 3173 3172 3171 3170 3169 3167 3166 3165 3164 3163 3161 3160 3159 3158 3156 3155 3154 3153 3151 3150 3149 3148 3146 3145 3144 3143 3142 3141 3140 3139 3138 3137 3136 3135 3135 3134 3134 3133 3132 3131 3131 3130 3129 3129 3128 3127 3126 3125 3126 3125 3124 3123 3123 3122 3121 3120 3120 3120 3119 3119
3174 3174 3173 3173 3173 3173 3173 3173 3173 3173 3174 3174 3174 3173 3172 3171 3169 3168 3166 3165 3164 3163 3161 3160 3159 3157 3156 3155 3154 3152 3151 3150 3149 3148 3146 3145 3144 3143 3142 3141 3140 3139 3137 3136 3135 3134 3134 3133 3132 3131 3131 3130 3129 3128 3127 3126 3126 3125 3124 3123 3121 3121 3122 3122 3120 3119 3119 3118 3117 3117 3116 3116 3116 3115
3171 3171 3171 3171 3171 3171 3171 3171 3171 3172 3172 3173 3173 3172 3170 3168 3166 3165 3164 3163 3162 3161 3159 3158 3157 3155 3154 3152 3151 3150 3149 3148 3146 3145 3144 3143 3142 3141 3140 3138 3137 3136 3135 3134 3133 3132 3131 3130 3129 3128 3127 3127 3126 3124 3123 3122 3122 3121 3120 3119 3118 3117 3118 3118 3117 3116 3115 3114 3114 3113 3113 3112 3112 3112
3169 3170 3170 3170 3170 3169 3169 3169 3170 3170 3170 3170 3170 3169 3167 3165 3164 3163 3162 3161 3160 3158 3157 3155 3154 3153 3152 3150 3149 3148 3146 3145 3144 3143 3142 3141 3139 3138 3137 3135 3134 3133 3132 3131 3130 3129 3128 3126 3125 3124 3124 3123 3122 3121 3120 3119 3118 3117 3116 3115 3114 3113 3113 3112 3112 3111 3110 3110 3109 3109 3109 3108 3108 3108
3169 3169 3169 3169 3168 3168 3167 3167 3167 3167 3166 3166 3166 3164 3163 3162 3161 3159 3158 3157 3156 3154 3153 3152 3151 3149 3148 3147 3146 3144 3143 3142 3141 3140 3139 3138 3136 3135 3134 3132 3131 3130 3129 3128 3127 3126 3125 3124 3122 3121 3120 3119 3119 3118 3117 3115 3114 3113 3112 3111 3110 3109 3108 3107 3106 3106 3105 3104 3104 3103 3103 3103 3103 3104
3168 3168 3168 3167 3167 3166 3165 3165 3164 3163 3163 3162 3161 3160 3159 3158 3157 3156 3155 3153 3152 3151 3150 3149 3147 3146 3145 3143 3142 3140 3139 3138 3137 3135 3134 3133 3132 3131 3130 3128 3127 3127 3126 3125 3124 3123 3122 3121 3120 3119 3117 3116 3115 3115 3113 3112 3110 3109 3108 3107 3106 3105 3104 3103 3102 3101 3100 3099 3099 3098 3098 3097 3098 3098
3165 3165 3165 3165 3164 3164 3163 3162 3162 3161 3160 3159 3158 3157 3156 3154 3153 3152 3151 3150 3149 3148 3147 3145 3144 3143 3141 3139 3138 3136 3135 3133 3132 3131 3130 3129 3128 3127 3125 3124 3123 3122 3121 3121 3120 3120 3119 3117 3116 3115 3114 3113 3111 3111 3110 3108 3107 3105 3104 3103 3102 3101 3099 3098 3097 3096 3096 3095 3094 3093 3093 3092 3092 3093
3163 3163 3163 3162 3162 3161 3161 3160 3159 3158 3157 3156 3155 3154 3152 3151 3150 3149 3148 3146 3145 3144 3143 3141 3140 3139 3137 3136 3134 3133 3131 3130 3128 3127 3126 3125 3124 3123 3122 3121 3120 3118 3117 3116 3116 3115 3114 3113 3112 3110 3109 3108 3107 3106 3105 3104 3102 3101 3100 3099 3098 3097 3095 3094 3093 3092 3091 3091 3090 3089 3089 3088 3088 3088
3161 3161 3160 3160 3159 3159 3158 3157 3156 3155 3154 3153 3152 3150 3149 3148 3146 3145 3144 3143 3141 3140 3139 3138 3136 3135 3134 3132 3131 3129 3128 3127 3125 3124 3123 3122 3120 3119 3118 3117 3116 3115 3113 3112 3111 3110 3109 3108 3107 3106 3105 3104 3103 3102 3100 3099 3097 3096 3095 3094 3094 3093 3092 3091 3090 3088 3088 3087 3086 3085 3085 3084 3084 3084
3159 3158 3158 3157 3157 3156 3155 3154 3153 3152 3151 3150 3149 3147 3146 3145 3143 3142 3140 3139 3138 3137 3136 3134 3133 3132 3131 3130 3128 3127 3125 3123 3122 3120 3119 3118 3117 3115 3114 3113 3112 3110 3109 3107 3106 3105 3104 3103 3102 3100 3099 3099 3098 3097 3096 3094 3092 3092 3091 3089 3088 3087 3086 3085 3084 3083 3082 3082 3082 3081 3081 3080 3080 3080
3157 3156 3156 3155 3154 3153 3152 3152 3151 3149 3148 3147 3145 3144 3143 3141 3139 3138 3137 3136 3135 3134 3132 3131 3130 3129 3128 3126 3125 3123 3122 3120 3118 3116 3115 3114 3112 3111 3110 3108 3107 3106 3104 3102 3101 3100 3098 3097 3096 3095 3094 3093 3093 3092 3092 3090 3088 3086 3085 3084 3083 3082 3080 3079 3078 3077 3076 3076 3076 3076 3076 3076 3076 3075
3155 3154 3153 3152 3152 3151 3150 3149 3148 3147 3145 3144 3142 3141 3139 3137 3136 3134 3133 3132 3132 3130 3129 3128 3127 3126 3124 3123 3122 3120 3118 3116 3114 3113 3111 3110 3108 3107 3105 3104 3102 3101 3099 3097 3096 3094 3093 3092 3091 3090 3089 3088 3087 3086 3086 3086 3083 3081 3080 3079 3078 3077 3076 3075 3074 3073 3073 3072 3072 3072 3071 3071 3071 3070
3152 3152 3151 3150 3149 3148 3148 3146 3145 3144 3142 3141 3139 3137 3136 3134 3132 3131 3130 3130 3129 3128 3126 3125 3124 3122 3121 3119 3117 3116 3114 3112 3111 3109 3107 3106 3104 3102 3101 3099 3097 3096 3094 3092 3091 3089 3088 3087 3086 3084 3083 3082 3081 3080 3080 3080 3079 3077 3076 3075 3074 3073 3072 3072 3071 3070 3069 3069 3068 3068 3067 3067 3066 3065
3149 3148 3148 3147 3146 3145 3144 3143 3142 3141 3139 3137 3136 3134 3132 3131 3129 3128 3127 3126 3125 3124 3123 3122 3120 3119 3117 3115 3113 3111 3110 3108 3106 3105 3103 3101 3100 3098 3096 3094 3093 3091 3089 3088 3086 3084 3083 3081 3080 3079 3077 3076 3076 3075 3075 3074 3073 3072 3071 3071 3070 3069 3068 3068 3067 3066 3065 3065 3064 3064 3063 3063 3062 3061
3145 3144 3143 3143 3142 3141 3140 3139 3138 3136 3135 3133 3131 3130 3128 3126 3125 3124 3123 3122 3121 3120 3119 3117 3116 3114 3113 3111 3109 3107 3105 3104 3102 3101 3099 3097 3095 3093 3091 3090 3088 3086 3085 3083 3081 3080 3078 3077 3075 3074 3072 3071 3070 3070 3069 3068 3067 3067 3066 3066 3065 3064 3063 3063 3063 3062 3061 3061 3060 3059 3059 3059 3058 3057
3142 3141 3140 3139 3138 3137 3136 3135 3133 3132 3130 3129 3127 3125 3124 3122 3120 3119 3118 3117 3116 3114 3113 3112 3110 3109 3107 3105 3103 3102 3100 3099 3098 3096 3094 3092 3090 3089 3087 3085 3083 3081 3080 3078 3076 3074 3073 3072 3070 3069 3068 3066 3065 3064 3063 3063 3062 3062 3061 3061 3060 3059 3058 3058 3058 3057 3056 3056 3056 3054 3054 3054 3053 3052
3138 3137 3136 3135 3134 3133 3132 3131 3129 3128 3126 3125 3123 3122 3120 3118 3117 3115 3114 3112 3111 3109 3108 3106 3105 3103 3102 3100 3098 3096 3095 3093 3092 3090 3089 3087 3085 3083 3082 3080 3078 3076 3075 3073 3072 3070 3069 3067 3066 3065 3063 3062 3060 3059 3058 3058 3057 3057 3056 3056 3055 3055 3054 3053 3053 3052 3051 3051 3050 3049 3048 3048 3048 3047
3135 3134 3132 3131 3130 3129 3128 3127 3125 3124 3123 3121 3120 3118 3116 3115 3113 3112 3110 3109 3107 3106 3104 3102 3101 3099 3097 3096 3094 3092 3090 3089 3087 3086 3084 3082 3080 3079 3077 3075 3073 3071 3070 3068 3067 3066 3065 3064 3062 3061 3059 3057 3057 3056 3054 3053 3053 3053 3052 3051 3051 3051 3050 3049 3048 3048 3047 3047 3046 3045 3044 3043 3043 3042
3132 3131 3129 3128 3126 3125 3124 3123 3122 3120 3119 3118 3116 3114 3113 3111 3110 3108 3106 3105 3103 3102 3100 3098 3096 3095 3093 3091 3090 3088 3086 3085 3083 3082 3080 3078 3076 3075 3073 3071 3069 3067 3066 3064 3063 3062 3061 3060 3058 3057 3056 3054 3053 3052 3051 3050 3049 3049 3048 3048 3048 3047 3046 3046 3045 3045 3044 3044 3043 3043 3042 3041 3040 3039
Wind_Speed
8 10 10 9 8 9 10 10 8 8 9 10 10 10 11 12 12 12 11 10 9 9 9 9 9 10 10 11 12 13 13 12 12 11 10 11 13 13 12 12 12 12 13 14 15 15 15 15 15 16 17 17 17 17 16 16 15 15 15 14 15 16 16 17 18 17 15 13 13 12 10 9 7 6
10 10 10 9 9 9 10 10 9 9 9 9 9 10 10 10 10 10 11 10 10 10 10 10 10 10 10 11 12 13 13 13 13 12 11 12 12 12 11 11 12 12 13 14 14 14 15 14 14 14 15 16 16 16 16 15 15 14 14 13 13 14 14 14 15 16 15 13 12 11 10 9 8 6
9 9 9 9 10 9 10 10 9 9 9 9 10 10 10 10 9 9 9 9 10 10 10 10 10 10 10 10 11 12 13 13 14 14 13 12 13 12 11 11 12 13 13 14 14 14 14 14 14 13 14 15 15 16 16 15 14 14 14 14 13 13 13 13 12 13 14 13 11 10 10 9 7 7
8 8 9 9 10 10 11 10 9 9 9 9 10 10 9 9 10 10 9 9 10 11 10 10 11 11 11 11 11 12 13 13 14 14 13 13 13 14 13 12 12 13 13 14 14 15 15 15 14 13 13 14 15 15 15 14 14 14 14 14 14 13 12 11 11 10 11 12 11 9 8 8 8 7
8 8 9 9 10 11 11 11 10 9 10 10 9 9 9 9 10 10 10 9 10 12 12 12 11 12 12 12 12 12 13 14 15 14 13 12 12 13 14 13 13 14 14 14 14 15 15 15 15 13 13 14 15 15 14 13 12 12 13 13 13 14 13 11 10 9 9 9 10 10 8 7 6 6
9 9 9 9 10 11 12 11 11 11 10 10 10 10 10 10 11 10 11 11 11 11 12 12 12 12 13 13 13 12 12 13 14 15 14 12 12 13 13 14 14 15 16 16 15 15 14 15 15 15 13 13 14 14 14 12 11 11 11 12 12 13 13 12 10 8 7 7 7 8 8 8 6 5
9 9 9 9 10 11 12 12 12 12 11 11 11 11 12 12 11 11 11 12 12 11 12 13 13 13 14 14 13 12 11 12 12 13 13 12 12 12 13 14 14 15 16 17 17 16 15 14 14 15 14 13 13 14 14 13 11 10 10 10 10 11 11 11 10 8 7 6 5 5 6 7 7 6
9 9 10 10 10 11 13 13 13 12 12 11 12 12 12 12 12 12 12 12 13 12 13 14 15 15 14 14 13 12 11 11 11 12 12 13 13 13 14 14 15 15 15 17 17 16 16 15 13 14 14 14 13 13 14 13 12 11 10 10 9 9 8 9 8 7 6 5 4 4 4 4 4 5
10 10 11 11 11 12 13 13 13 13 12 12 12 12 12 13 14 14 14 14 15 15 15 15 16 16 15 14 14 14 13 12 12 12 12 14 14 15 15 16 16 16 15 16 17 16 16 15 13 12 14 14 13 12 13 13 12 11 11 11 10 8 7 7 7 6 6 5 4 4 3 3 3 2
10 11 12 12 12 11 11 12 13 13 13 13 13 13 13 14 15 15 15 16 16 17 17 16 16 16 16 15 15 15 16 15 15 14 14 15 16 17 18 18 18 18 17 17 17 16 15 15 14 12 13 15 15 13 11 12 12 11 11 11 12 10 8 7 7 7 6 6 6 5 4 4 3 4
12 12 13 12 11 10 11 11 12 13 14 14 15 15 15 15 15 16 16 16 17 18 17 17 17 17 17 16 16 17 18 18 18 18 17 17 18 20 20 22 22 22 21 20 19 18 16 16 15 14 13 15 16 15 13 11 12 12 12 12 12 12 11 9 9 8 8 8 8 8 7 7 5 5
13 13 13 12 11 10 11 12 13 13 14 15 15 15 15 16 16 16 17 17 18 19 19 18 18 18 18 18 18 19 20 20 20 21 21 19 20 21 21 23 25 25 25 24 22 20 19 19 18 17 16 16 17 18 16 14 13 12 12 13 13 13 13 12 11 11 10 10 9 9 10 9 9 8
13 13 13 13 12 12 12 13 13 14 14 15 16 16 16 17 18 19 20 20 21 21 21 21 21 21 20 20 21 21 21 22 22 22 23 22 22 22 21 22 25 26 26 26 25 23 22 21 20 19 18 17 17 18 18 17 15 13 13 13 14 14 14 14 14 13 12 12 11 11 10 11 11 10
13 13 13 13 13 13 14 14 14 15 15 16 17 18 18 19 21 22 22 23 23 23 23 23 24 24 23 22 24 24 24 24 24 24 25 24 24 24 23 22 24 25 26 26 26 25 24 23 22 20 19 18 17 17 18 18 17 15 14 14 15 15 15 15 15 15 14 13 12 12 12 12 12 12
15 15 14 14 14 15 15 16 16 16 17 18 19 20 21 22 23 24 24 23 24 24 25 25 26 27 26 25 26 27 27 27 26 26 26 26 25 25 24 24 24 25 27 27 26 25 25 24 23 22 20 20 19 18 18 19 18 17 16 16 15 15 16 16 15 15 15 14 13 13 13 13 13 13
16 16 16 16 17 17 17 17 17 18 19 19 20 21 22 23 24 25 26 26 25 25 26 26 26 27 28 27 27 28 29 29 29 28 28 27 26 26 26 26 25 25 27 27 26 26 26 25 24 23 22 21 20 19 19 20 19 19 18 17 16 16 16 16 16 16 16 15 14 14 14 14 14 14
17 18 18 19 19 19 19 19 19 19 20 20 21 22 23 24 25 26 27 28 27 26 26 25 25 25 26 26 26 27 29 30 31 30 29 28 28 28 27 26 25 25 27 27 26 26 27 26 25 24 23 22 21 21 21 21 21 20 20 19 18 17 17 17 17 17 17 16 16 15 15 16 16 16
20 20 21 21 21 20 20 20 20 20 20 20 21 22 23 24 24 25 26 27 27 26 25 24 23 23 24 24 24 25 26 27 28 28 28 28 28 28 27 26 24 25 26 27 27 27 26 26 26 25 24 23 22 22 22 22 23 22 21 20 19 18 18 18 18 19 19 18 17 17 17 17 17 18
23 23 23 22 21 21 21 21 21 21 21 21 22 23 24 24 24 25 25 24 25 25 24 24 24 23 23 23 23 22 23 23 24 24 25 26 27 26 26 25 25 26 27 28 29 28 26 26 27 25 22 22 22 22 22 23 25 24 21 20 19 19 19 19 19 19 20 20 19 19 19 19 19 19
25 24 23 22 21 22 22 22 22 21 21 22 23 24 24 24 24 25 23 22 22 23 23 24 24 23 23 23 22 21 21 21 21 21 22 23 24 25 25 25 26 27 28 29 29 28 25 25 26 25 21 20 21 21 22 24 25 24 20 19 19 19 19 19 19 19 20 21 21 21 21 21 21 21
25 23 22 22 22 22 22 22 22 22 22 23 23 23 23 24 24 24 23 22 21 21 22 22 23 23 22 22 22 21 21 21 21 21 22 23 24 25 25 26 26 27 28 28 27 26 24 24 25 24 22 20 20 21 22 22 21 19 17 16 18 19 19 19 19 20 20 21 22 22 23 23 23 23
24 23 22 22 22 22 22 22 22 22 22 23 23 23 23 23 23 22 22 21 21 21 21 21 21 21 21 21 21 21 21 21 21 22 22 23 23 24 24 25 25 24 24 25 25 25 24 24 24 23 22 20 20 21 21 20 18 17 17 18 19 20 20 20 20 20 21 22 23 23 24 25 25 25
23 22 21 21 21 21 21 21 21 21 22 22 21 21 21 20 20 19 19 19 19 19 19 19 19 20 20 20 20 20 20 20 20 21 21 22 22 22 22 22 23 22 21 20 19 20 22 23 22 21 21 21 20 20 20 20 18 18 18 20 21 21 21 21 22 22 22 23 23 24 25 26 26 26
23 21 20 19 19 19 18 19 19 19 19 18 17 17 17 16 16 16 16 16 17 17 18 18 18 19 19 20 20 20 20 19 19 20 20 20 20 20 19 20 19 18 17 15 14 15 18 20 20 21 21 20 20 21 22 22 22 22 23 23 24 24 24 23 23 23 23 23 24 25 26 26 26 27
21 19 18 18 16 17 17 17 18 17 15 14 13 13 14 15 15 16 16 17 17 18 18 19 19 19 19 19 20 20 20 20 20 20 20 19 19 18 18 17 15 14 14 14 14 14 15 16 17 17 18 18 19 21 24 24 24 25 26 27 27 27 27 26 25 25 25 24 25 26 28 28 27 27
20 18 19 19 19 19 19 20 20 17 13 12 12 13 14 15 16 17 17 18 19 19 19 19 20 20 19 20 20 20 20 20 21 21 20 19 18 18 17 16 15 14 15 15 16 16 16 16 17 17 18 19 21 23 25 26 26 26 27 28 29 29 29 29 28 26 25 26 27 28 28 29 29 28
18 18 20 20 21 21 21 22 21 17 13 12 12 13 15 16 17 18 19 20 20 19 19 19 20 21 21 20 20 20 20 20 20 20 20 20 20 19 18 18 18 17 18 18 19 19 19 19 20 21 22 23 24 26 27 27 27 27 27 28 30 30 30 30 30 29 27 27 28 28 27 27 27 28
18 19 20 20 20 20 20 20 16 13 13 14 15 16 17 17 18 19 20 21 20 20 20 20 20 21 22 22 21 21 21 21 20 20 20 20 20 21 21 21 22 22 22 22 22 23 23 23 23 24 24 25 26 27 28 28 27 25 24 26 28 28 28 28 30 30 29 27 26 25 24 24 24 25
11 12 14 14 15 15 14 13 11 12 15 17 17 17 17 18 19 20 21 21 21 22 22 22 21 21 22 23 23 23 23 23 22 21 21 20 21 22 23 24 25 26 26 26 26 26 26 26 26 27 27 27 28 29 29 29 29 26 25 25 27 28 28 28 29 30 29 28 26 25 24 24 24 24
5 6 8 10 12 13 14 14 15 17 19 19 17 15 15 17 19 20 21 22 22 22 23 23 23 23 23 23 24 24 24 24 24 23 23 22 22 23 24 25 26 27 27 26 26 27 27 27 27 27 27 27 27 28 29 29 28 28 28 29 30 31 31 30 30 29 29 29 28 27 26 25 24 24
7 9 10 12 14 16 17 18 20 21 21 20 19 18 18 19 20 21 22 23 23 24 25 25 25 25 25 24 23 24 24 24 24 24 24 24 25 25 25 26 27 27 27 25 25 26 27 27 28 28 27 26 25 26 28 28 28 28 28 29 31 32 32 32 31 31 31 31 30 30 29 28 27 25
12 13 14 15 17 18 19 20 20 21 20 21 21 22 23 23 23 23 23 24 25 26 26 26 26 26 26 25 25 25 25 25 25 25 25 25 26 26 27 27 28 28 27 26 25 24 23 22 22 23 24 24 25 26 27 29 30 31 31 30 30 31 32 32 31 32 32 32 32 33 33 32 31 30
14 15 15 16 17 18 19 19 20 20 21 21 22 23 24 24 24 24 23 24 25 26 26 26 26 26 26 27 27 27 28 27 27 27 26 26 27 27 27 28 29 29 29 28 27 27 26 25 26 27 28 28 28 28 27 28 30 31 31 32 33 33 33 32 31 32 32 32 33 34 34 35 35 33
14 15 16 16 17 18 19 20 20 20 21 22 23 24 25 25 25 25 25 26 27 28 28 28 27 27 27 27 28 28 28 29 29 29 29 29 29 29 29 30 30 31 31 31 31 30 31 32 34 35 36 36 36 35 34 33 33 33 32 32 32 33 33 32 31 31 31 31 32 33 33 34 35 35
14 15 16 17 18 18 19 20 21 21 22 22 23 24 25 26 26 27 28 28 29 29 29 29 29 29 28 28 28 28 29 29 30 30 31 31 31 31 32 32 32 33 33 34 34 34 33 34 35 36 36 37 37 38 38 39 39 39 39 38 36 35 34 34 33 32 32 32 32 33 33 33 34 35
15 16 17 17 18 19 20 21 21 22 22 23 24 24 25 26 27 28 29 29 29 29 30 30 29 29 28 28 28 29 29 30 31 31 32 32 33 33 33 34 34 34 34 35 35 35 35 35 36 36 36 36 36 36 37 39 41 42 43 43 43 42 40 38 36 36 35 33 32 32 33 34 35 35
16 16 17 18 18 19 19 20 20 21 22 23 23 24 25 26 27 29 29 29 30 29 30 30 30 29 29 28 29 30 32 33 33 34 34 34 34 34 35 35 35 35 35 36 36 36 36 37 37 37 37 36 36 35 35 35 38 40 41 41 41 42 41 39 36 34 32 30 28 29 30 31 33 34
16 17 17 18 18 18 19 19 19 20 21 22 23 24 25 27 28 29 30 29 30 29 29 29 30 30 30 30 31 33 34 34 34 34 35 35 35 35 36 36 37 37 37 37 37 37 37 37 37 38 38 37 36 36 34 33 34 35 36 36 36 36 36 35 34 32 30 28 26 26 27 28 29 31
16 16 17 17 18 18 18 19 20 21 22 23 25 26 27 28 30 31 30 30 30 30 30 30 31 31 32 33 34 35 35 35 34 34 34 34 34 34 35 35 36 37 37 38 39 38 38 37 37 37 37 37 37 36 35 34 33 34 34 34 34 33 32 32 32 32 31 30 29 28 28 28 29 29
17 17 18 18 18 19 19 20 21 22 24 25 26 27 28 30 31 31 31 31 31 30 31 31 32 32 33 34 35 35 35 35 34 34 33 32 32 32 33 33 34 35 36 37 38 39 39 39 37 36 36 36 36 36 35 35 34 34 34 34 33 33 32 32 31 32 32 31 31 31 31 30 30 30
19 20 20 20 20 21 21 22 23 24 25 26 27 28 29 31 32 32 32 31 31 31 31 31 32 33 34 35 35 35 35 34 33 32 32 31 31 31 31 32 32 33 35 36 38 38 38 38 37 35 35 35 35 34 33 32 32 32 32 32 32 32 32 31 31 31 32 31 32 32 32 31 31 31
20 21 21 22 23 23 24 24 25 26 27 28 29 30 31 32 33 34 34 34 34 34 34 35 35 36 37 38 38 37 36 34 33 32 32 31 31 31 32 32 32 32 33 35 37 38 38 37 36 34 33 33 32 31 30 29 28 28 29 30 30 30 31 31 30 30 30 30 30 31 31 30 30 30
22 22 23 24 24 25 25 26 27 28 29 30 31 32 32 33 34 34 35 36 36 37 38 38 39 40 41 40 40 38 37 36 34 33 33 33 33 33 33 32 32 32 32 32 34 35 35 35 35 34 33 32 30 29 28 27 26 25 26 27 28 28 29 29 29 29 28 29 29 30 29 29 28 28
24 25 25 25 26 26 26 26 27 28 29 30 31 32 33 33 34 35 36 37 38 39 40 41 41 42 41 40 38 37 36 35 35 34 34 34 34 34 33 32 32 32 31 30 30 30 32 33 33 32 31 31 29 28 28 27 26 24 23 23 24 24 24 24 25 25 25 25 24 24 23 24 25 26
24 25 26 27 27 27 28 28 28 29 30 31 32 32 33 34 35 36 37 38 39 40 41 41 41 40 39 37 36 36 35 35 34 34 34 34 34 33 32 31 31 31 30 30 29 29 30 32 32 30 29 29 28 27 26 26 26 24 22 21 21 21 21 21 22 22 22 23 23 21 21 22 22 23
Wind_Direction
253 256 260 266 271 275 277 281 287 290 293 300 306 312 311 311 318 322 315 310 319 331 336 337 332 329 330 328 326 323 320 319 313 305 302 303 308 313 316 315 313 318 326 328 330 336 339 341 343 343 346 350 351 349 349 353 359 6 12 14 13 14 15 18 21 22 23 27 32 41 55 67 76 91
255 260 268 274 274 275 276 279 283 284 286 293 299 302 300 301 309 314 310 308 315 324 329 332 331 329 328 324 320 316 315 313 309 306 304 303 305 308 309 308 309 316 322 323 327 333 335 338 342 344 346 349 349 347 346 348 353 358 3 7 10 12 14 17 21 23 24 26 31 37 46 62 78 89
259 261 265 268 267 267 269 272 277 284 292 294 294 297 300 302 305 307 306 307 311 317 323 328 329 327 326 324 319 315 314 312 308 304 304 304 304 304 302 302 306 310 315 318 323 329 331 333 338 342 344 347 347 345 343 342 346 351 354 358 2 6 9 12 18 24 25 26 30 36 44 53 68 88
249 250 254 259 264 269 272 277 283 288 291 290 291 299 305 303 302 303 303 306 309 314 320 323 322 321 322 321 320 318 319 319 312 306 306 305 303 301 300 303 304 304 306 312 318 324 327 328 330 336 340 344 345 343 340 338 339 344 348 350 352 356 1 6 11 18 25 27 29 33 42 52 63 77
243 245 252 258 263 269 272 276 278 278 279 281 287 298 303 300 299 300 301 305 311 313 315 317 316 319 321 320 321 323 323 322 319 314 312 308 303 301 302 304 302 299 300 306 310 315 320 322 324 328 333 338 341 339 336 333 333 336 341 344 346 347 351 357 3 10 16 23 28 31 34 43 60 75
251 251 254 259 262 266 269 272 274 274 276 281 286 293 297 297 297 298 299 305 312 313 312 313 314 318 321 321 322 324 322 320 320 318 317 312 307 305 305 304 299 296 297 299 301 305 310 314 318 321 324 329 333 333 331 327 327 330 333 338 340 341 343 346 352 1 6 9 17 28 33 34 40 58
254 256 259 265 269 271 273 275 277 278 281 285 288 290 292 294 296 298 300 303 308 309 307 307 309 311 314 315 316 318 316 313 314 315 315 314 309 305 304 302 299 298 297 297 298 300 301 305 308 311 315 320 323 326 325 321 320 323 325 329 333 334 336 338 342 348 356 0 359 7 22 31 35 37
255 259 263 269 273 274 275 278 280 280 283 285 286 287 290 293 294 295 295 296 298 300 299 298 300 302 304 306 307 307 305 304 303 305 307 309 308 305 302 301 301 303 303 303 303 301 299 300 301 302 305 311 314 317 317 315 314 316 318 318 319 323 324 327 331 335 341 353 356 349 346 357 19 32
255 260 265 268 270 271 274 277 280 282 282 282 283 285 290 293 292 289 287 289 292 294 294 294 295 295 296 298 298 297 296 296 296 296 298 301 303 304 303 302 302 304 306 306 305 303 301 300 300 299 299 302 306 309 309 308 307 308 310 309 307 308 309 308 312 317 322 331 338 340 334 318 310 317
250 255 261 266 269 271 273 275 278 280 281 281 282 286 291 293 291 287 284 287 290 292 293 295 295 293 293 292 291 291 291 291 292 292 295 298 299 300 300 299 299 300 302 302 302 302 301 299 299 300 298 297 299 301 300 299 300 299 301 301 299 297 295 294 293 297 304 310 312 315 316 309 295 283
247 254 263 269 271 273 275 277 280 282 283 284 285 287 290 291 289 287 285 285 288 290 292 294 294 291 289 289 287 287 287 288 289 290 292 295 297 299 300 299 299 298 297 297 297 296 294 292 292 295 296 294 293 294 293 291 292 292 291 291 291 288 286 284 283 285 289 293 298 302 302 300 294 284
253 259 265 270 273 275 277 277 279 279 280 282 284 285 286 288 289 289 287 286 287 288 290 291 290 288 287 286 284 283 284 285 286 287 289 291 294 297 299 299 299 298 296 294 292 291 288 286 286 289 292 289 286 288 288 287 286 284 281 281 280 280 279 277 278 280 282 285 288 292 294 294 293 288
260 261 264 269 273 275 273 272 273 275 277 280 282 283 284 285 287 287 288 289 289 290 291 291 290 289 287 285 282 281 281 282 282 283 285 288 291 294 295 297 297 298 297 294 290 288 286 285 285 287 290 287 282 280 282 284 284 281 276 273 272 272 273 273 275 276 278 280 282 283 285 287 287 286
265 265 267 272 276 275 274 276 277 277 279 283 284 284 283 283 284 286 287 290 292 293 295 295 294 292 290 285 282 279 278 278 279 280 282 284 288 290 292 294 295 295 295 294 291 288 286 285 284 283 285 284 279 274 275 279 283 283 278 273 268 265 266 268 271 273 274 277 280 282 283 283 283 283
266 267 269 273 275 276 278 279 279 278 281 285 287 287 287 287 287 288 289 291 294 296 296 297 296 295 292 288 284 281 278 276 276 277 279 281 285 287 288 290 291 289 290 292 292 288 284 282 282 282 281 281 277 272 271 276 282 283 281 276 270 263 261 262 265 268 270 272 276 280 281 282 282 282
266 269 273 276 277 279 280 279 279 280 283 286 289 290 292 292 293 294 294 295 295 294 294 294 295 294 293 291 288 284 281 278 276 277 278 280 283 285 287 289 289 287 287 289 289 287 284 281 281 281 279 279 276 273 273 277 281 281 280 278 273 266 262 261 261 263 265 267 271 275 278 279 280 279
262 266 271 275 277 278 278 278 277 278 281 285 289 292 293 294 295 296 297 297 297 295 295 295 295 295 295 294 292 289 285 281 279 278 278 280 282 285 287 288 287 285 285 285 286 285 284 282 280 278 277 276 276 275 275 276 277 278 277 276 274 269 265 265 265 264 263 263 266 270 273 276 277 277
257 262 268 271 273 275 276 276 275 276 281 285 288 291 292 292 292 294 295 296 297 297 297 298 299 299 299 299 298 294 290 286 282 279 278 280 282 285 286 287 287 285 284 284 285 285 284 280 277 275 275 274 274 274 275 276 275 274 272 272 273 272 270 271 271 268 265 264 264 267 270 272 274 275
257 263 268 268 269 271 272 272 274 278 283 285 286 288 289 288 289 291 292 293 294 296 297 298 300 300 300 301 301 299 296 292 287 283 281 282 283 285 286 287 289 287 284 284 285 285 282 276 273 273 272 272 273 273 274 275 274 270 267 269 272 274 274 273 273 271 269 268 267 268 269 270 271 271
260 264 265 265 266 268 270 273 277 281 283 284 286 287 287 287 288 290 289 288 289 291 293 295 297 298 299 300 301 301 299 297 293 289 287 286 285 286 287 289 289 287 285 284 284 283 279 274 273 273 272 270 270 271 275 279 276 266 259 263 269 273 275 275 274 274 273 272 270 269 269 269 270 270
259 261 262 264 267 270 273 277 280 282 283 285 287 288 287 287 289 290 288 288 289 290 292 294 296 297 297 298 299 300 300 298 296 294 291 290 289 290 290 290 290 288 287 285 282 278 277 276 275 272 269 266 266 269 275 282 278 267 260 263 267 271 274 276 277 277 276 274 272 270 269 269 269 269
253 256 260 264 268 272 276 279 281 283 285 287 288 288 287 288 289 289 290 291 293 294 295 297 298 299 300 302 303 304 304 303 302 299 297 295 293 293 292 292 291 289 288 285 281 278 278 277 272 266 263 262 263 267 270 273 273 270 267 267 268 270 272 274 276 277 278 278 276 274 271 270 269 269
249 253 259 264 269 274 278 280 283 285 286 287 287 287 288 289 290 290 291 293 295 296 299 300 301 302 304 305 306 306 306 306 303 300 298 296 295 294 293 294 294 292 290 287 284 283 281 276 267 262 263 263 263 265 267 267 268 269 267 267 270 271 271 271 272 273 275 276 277 276 274 271 269 269
251 254 259 264 271 278 282 285 286 285 285 286 287 288 289 289 289 289 290 291 293 294 296 297 298 299 299 300 301 302 303 302 299 297 295 295 294 294 294 295 295 294 293 290 287 288 286 278 267 260 261 263 262 263 265 266 267 269 270 270 271 271 271 271 272 272 273 272 274 276 275 271 268 267
250 252 257 264 273 281 286 290 290 286 283 285 289 291 292 291 290 290 291 293 293 293 294 295 295 296 297 298 299 301 301 301 298 295 294 293 292 292 292 292 289 285 286 287 287 288 286 279 270 261 258 261 263 265 268 269 268 269 270 271 271 271 272 272 271 270 270 271 274 276 275 271 267 264
246 253 261 269 275 278 282 287 287 285 283 288 293 294 294 294 294 295 295 294 293 293 295 296 297 297 298 299 300 301 301 300 299 295 292 288 286 285 285 285 282 279 277 278 279 280 278 277 276 273 271 272 273 274 276 276 275 274 274 274 273 272 272 272 271 269 270 273 276 277 276 271 265 261
251 261 268 274 277 277 276 277 281 284 288 293 295 295 296 297 298 298 295 292 291 292 294 295 296 297 297 296 297 297 297 297 297 295 291 287 283 280 280 280 279 277 273 271 271 274 276 279 280 279 279 281 281 281 281 281 280 279 277 275 272 271 271 273 274 275 275 276 277 279 278 273 265 259
258 263 268 272 275 275 274 274 280 292 298 299 299 299 299 298 294 289 286 285 287 289 291 291 291 293 293 294 294 294 294 294 294 293 292 289 285 280 277 276 275 273 272 271 273 275 277 278 278 279 279 279 278 278 278 278 277 277 275 273 272 273 274 275 276 276 275 274 274 275 276 274 267 260
256 261 263 265 267 268 269 272 280 289 294 296 297 296 293 288 283 281 282 285 287 290 291 293 294 295 296 297 297 297 296 295 293 292 291 290 288 284 280 277 276 276 276 278 279 279 278 277 275 275 275 274 274 275 275 274 273 273 272 273 276 279 280 279 276 273 272 272 272 271 271 272 268 261
262 267 265 266 268 270 274 280 284 288 292 296 297 294 287 282 281 284 288 291 293 295 297 300 302 303 303 303 302 302 300 298 295 292 291 290 289 288 285 282 280 279 280 282 283 283 282 282 282 281 280 278 278 277 275 273 271 272 274 277 280 282 283 282 280 278 276 276 276 276 275 275 273 268
272 274 274 277 280 283 287 291 292 293 297 300 302 302 299 296 295 296 298 300 302 302 303 305 305 305 304 303 301 299 297 295 294 292 291 291 289 287 286 284 283 282 282 283 284 285 287 287 287 286 286 285 284 282 279 277 277 279 280 281 283 284 285 285 284 282 281 282 282 282 281 279 277 274
271 274 278 281 284 288 291 293 295 298 302 304 305 305 305 306 307 308 309 309 307 306 305 305 305 303 301 299 297 294 292 290 289 287 286 286 286 285 284 284 284 283 282 280 279 281 283 283 281 281 282 282 283 283 283 282 282 281 280 279 279 279 279 278 277 278 279 281 282 282 282 282 281 279
276 278 281 284 287 290 293 296 299 302 304 304 304 304 306 308 309 310 310 308 305 304 304 303 301 300 299 297 295 293 291 289 286 284 283 282 282 282 282 283 282 282 280 278 274 270 267 267 270 273 275 274 274 275 277 277 276 275 274 272 270 267 264 262 263 265 268 271 274 276 279 280 281 280
285 287 288 290 291 294 296 298 300 300 301 303 304 305 306 307 308 307 306 305 305 304 304 303 303 302 300 299 297 295 293 291 290 288 287 285 284 283 282 282 283 283 282 281 279 275 271 269 270 272 273 272 272 273 274 274 274 274 275 273 270 266 261 258 256 257 259 262 266 269 273 276 278 278
290 291 292 293 294 295 297 298 299 300 301 302 303 303 303 303 303 303 303 303 303 303 302 302 302 301 301 301 301 300 300 300 299 298 296 294 293 291 288 287 285 285 285 284 284 283 281 279 278 277 276 275 274 274 275 276 276 276 278 280 279 277 275 271 268 264 262 261 263 265 267 270 274 276
287 287 289 291 293 294 296 297 299 300 300 301 301 301 301 301 299 298 298 297 298 298 299 300 300 301 302 303 304 305 306 306 306 305 304 303 301 299 297 294 292 289 287 286 285 285 285 285 284 283 282 281 279 277 276 277 277 276 277 280 282 284 285 286 285 282 278 274 271 270 270 269 270 271
286 288 290 292 293 294 295 296 298 299 300 300 300 299 299 297 295 294 294 295 296 297 298 299 300 301 302 303 305 308 310 309 308 307 306 306 305 304 302 300 298 295 292 290 288 287 286 286 286 286 285 284 283 281 280 280 280 279 280 281 283 285 288 291 292 291 289 286 280 275 273 271 270 269
294 295 296 296 296 297 297 297 297 297 296 295 294 293 292 291 290 291 293 295 297 298 299 300 300 301 300 301 304 307 308 308 307 306 305 304 303 302 301 300 299 298 296 294 292 290 289 288 287 287 287 286 285 284 283 283 284 284 283 283 284 285 286 287 288 288 287 286 283 279 276 274 271 270
295 295 295 295 296 296 294 294 292 290 290 289 289 289 289 289 289 290 292 294 296 296 297 298 299 299 299 300 302 305 306 306 305 304 303 301 300 299 299 298 297 296 295 295 294 293 292 291 289 288 287 286 286 285 284 284 285 285 285 284 284 284 283 283 283 283 283 283 282 280 278 277 274 273
299 299 298 298 297 296 294 292 290 289 288 288 288 289 289 289 290 291 293 294 295 295 295 296 297 298 299 300 302 304 305 304 303 302 301 301 300 300 299 298 297 296 295 293 292 291 291 290 290 290 289 287 285 285 284 284 285 285 285 285 285 285 283 281 279 279 278 278 278 277 276 276 275 274
306 305 304 303 301 299 298 297 295 294 293 293 293 294 294 295 296 298 299 300 299 299 299 299 299 300 301 303 305 306 305 304 303 303 302 303 303 303 302 301 299 297 296 294 293 291 290 289 289 290 290 289 287 285 283 282 283 284 285 285 286 285 284 283 281 280 278 278 278 277 277 277 277 277
303 302 301 300 300 300 300 299 298 297 297 297 298 298 299 300 302 303 304 305 305 305 305 306 306 307 308 309 309 309 307 306 306 306 306 306 306 306 305 303 301 299 296 294 293 293 293 294 293 292 292 291 288 286 283 282 281 281 281 281 282 282 282 282 281 279 279 278 277 276 276 276 277 277
302 300 300 299 300 300 300 300 299 298 298 298 298 299 300 301 302 303 304 305 306 307 308 309 309 310 310 310 310 309 308 309 309 309 309 309 309 308 308 306 305 304 301 297 295 296 298 300 300 298 296 294 292 289 287 285 283 281 279 278 277 277 278 279 279 279 278 278 278 279 280 279 278 279
303 302 301 301 300 300 299 299 298 298 298 298 299 300 300 301 301 302 303 304 305 306 306 307 307 307 308 308 308 308 308 309 310 309 309 308 308 309 309 309 309 309 307 305 303 301 301 302 301 299 297 295 294 293 291 289 288 287 285 282 281 279 279 278 279 281 283 283 283 285 287 287 289 290
304 304 304 303 303 303 302 301 301 300 300 300 299 299 299 299 300 300 301 302 302 303 303 303 304 305 306 307 307 307 308 308 308 307 306 306 306 307 308 309 310 309 309 308 307 305 302 299 296 294 292 291 291 289 287 288 289 289 288 287 286 284 281 279 280 282 284 285 286 286 287 290 293 294